Change the Weather History Date:

Wednesday, December 18, 2013

  Actual Average Record
Temperature  
Mean Temperature 47 °F 33 °F  
Max Temperature 67 °F 42 °F 68 °F (2001)
Min Temperature 27 °F 23 °F -4 °F (1983)
Degree Days  
Heating Degree Days 18 32  
Month to date heating degree days 600 540  
Since 1 July heating degree days 1485 1416  
Cooling Degree Days 0 0  
Month to date cooling degree days 0 0  
Year to date cooling degree days 1778 1686  
Moisture  
Dew Point 30 °F    
Average Humidity 57    
Maximum Humidity 85    
Minimum Humidity 29    
Precipitation  
Precipitation 0.00 in 0.04 in 1.26 in (1898)
Month to date precipitation T 0.76  
Year to date precipitation 39.85 32.20  
Snow  
Snow 0.00 in 0.10 in 3.00 in (1995)
Month to date snowfall T 2.4  
Since 1 July snowfall T 3.8  
Snow Depth 0.00 in    
Sea Level Pressure  
Sea Level Pressure 29.96 in    
Wind  
Wind Speed 14 mph (South)    
Max Wind Speed 29 mph    
Max Gust Speed 38 mph    
Visibility 10 miles    
Events      
T = Trace of Precipitation, MM = Missing Value Source: NWS Daily Summary

Daily Weather History Graph

Daily Weather History Graph

Search for Another Location

Airport or City:

Trip Planner

Search our weather history database for the weather conditions in past years. The results will help you decide how hot, cold, wet, or windy it might be!

Date:

Astronomy

Dec. 18, 2013 Rise Set
Actual Time 7:39 AM CST 5:13 PM CST
Civil Twilight 7:10 AM CST 5:42 PM CST
Nautical Twilight 6:37 AM CST 6:15 PM CST
Astronomical Twilight 6:05 AM CST 6:47 PM CST
Moon 6:44 PM CST (12/18) 8:21 AM CST (12/18)
Length of Visible Light 10h 32m
Length of Day
9h 33m
Full, 98% of the Moon is Illuminated
Dec 18
Full
Dec 25
Last Quarter
Jan 1
New
Jan 7
First Quarter
Jan 15
Full

Hourly Weather History & Observations

Time (CST) Temp. Windchill Dew Point Humidity Pressure Visibility Wind Dir Wind Speed Gust Speed Precip Events Conditions
12:53 AM 30.9 °F 25.2 °F 19.9 °F 64% 30.22 in 10.0 mi South 5.8 mph - N/A   Clear
1:53 AM 28.0 °F 20.8 °F 19.9 °F 72% 30.20 in 10.0 mi South 6.9 mph - N/A   Partly Cloudy
2:53 AM 28.9 °F 21.9 °F 21.0 °F 72% 30.17 in 10.0 mi South 6.9 mph - N/A   Scattered Clouds
3:53 AM 30.0 °F 23.2 °F 21.9 °F 72% 30.16 in 10.0 mi South 6.9 mph - N/A   Scattered Clouds
4:53 AM 30.0 °F 21.1 °F 24.1 °F 79% 30.14 in 10.0 mi South 10.4 mph - N/A   Partly Cloudy
5:53 AM 30.0 °F 21.7 °F 24.1 °F 79% 30.11 in 10.0 mi South 9.2 mph - N/A   Scattered Clouds
6:53 AM 28.9 °F 21.1 °F 24.1 °F 82% 30.10 in 10.0 mi South 8.1 mph - N/A   Mostly Cloudy
7:53 AM 32.0 °F 23.0 °F 26.1 °F 79% 30.09 in 10.0 mi South 11.5 mph - N/A   Mostly Cloudy
8:53 AM 37.0 °F 30.4 °F 28.9 °F 73% 30.08 in 10.0 mi South 9.2 mph - N/A   Mostly Cloudy
9:53 AM 43.0 °F 36.0 °F 30.0 °F 60% 30.05 in 10.0 mi South 13.8 mph - N/A   Mostly Cloudy
10:53 AM 51.1 °F - 30.9 °F 46% 30.03 in 10.0 mi SSW 19.6 mph 26.5 mph N/A   Mostly Cloudy
11:53 AM 57.0 °F - 33.1 °F 40% 29.98 in 10.0 mi SSW 19.6 mph - N/A   Mostly Cloudy
12:53 PM 64.0 °F - 33.1 °F 31% 29.91 in 10.0 mi SSW 25.3 mph 32.2 mph N/A   Mostly Cloudy
1:53 PM 66.0 °F - 34.0 °F 30% 29.86 in 10.0 mi SSW 23.0 mph 38.0 mph N/A   Mostly Cloudy
2:53 PM 64.9 °F - 34.0 °F 32% 29.83 in 10.0 mi South 18.4 mph 32.2 mph N/A   Mostly Cloudy
3:53 PM 66.0 °F - 33.1 °F 29% 29.80 in 10.0 mi SSW 23.0 mph 33.4 mph N/A   Mostly Cloudy
4:53 PM 62.1 °F - 33.1 °F 34% 29.80 in 10.0 mi South 15.0 mph - N/A   Mostly Cloudy
5:53 PM 55.9 °F - 35.1 °F 45% 29.80 in 10.0 mi South 16.1 mph - N/A   Mostly Cloudy
6:53 PM 55.9 °F - 34.0 °F 44% 29.81 in 10.0 mi SSW 18.4 mph - N/A   Scattered Clouds
7:53 PM 55.0 °F - 34.0 °F 45% 29.81 in 10.0 mi South 19.6 mph - N/A   Partly Cloudy
8:53 PM 54.0 °F - 35.1 °F 49% 29.80 in 10.0 mi South 16.1 mph - N/A   Scattered Clouds
9:53 PM 50.0 °F - 35.1 °F 57% 29.80 in 10.0 mi South 12.7 mph - N/A   Mostly Cloudy
10:53 PM 50.0 °F - 36.0 °F 59% 29.78 in 10.0 mi South 12.7 mph - N/A   Mostly Cloudy
11:53 PM 48.9 °F - 37.0 °F 64% 29.77 in 10.0 mi South 12.7 mph - N/A   Mostly Cloudy